timestamp,wind_dir_avg,wind_spd_avg,wind_spd_max_dir,wind_spd_gust,battery_voltage,lat,long
2024-03-02 00:04:00+00:00,276.0,7.73,253.0,10.37,12.17,47.59359,-54.27349
2024-03-02 00:14:00+00:00,274.0,7.08,282.0,9.4,12.17,47.59359,-54.27349
2024-03-02 00:24:00+00:00,240.0,8.46,254.0,11.7,12.17,47.59359,-54.27349
2024-03-02 00:34:00+00:00,246.0,8.24,236.0,10.21,12.17,47.59359,-54.27349
2024-03-02 00:44:00+00:00,237.0,8.82,237.0,10.76,12.17,47.59359,-54.27349
2024-03-02 00:54:00+00:00,243.0,8.21,244.0,10.33,12.17,47.59359,-54.27349
2024-03-02 01:04:00+00:00,257.0,9.78,261.0,14.76,12.17,47.59359,-54.27349
2024-03-02 01:14:00+00:00,272.0,7.97,286.0,9.25,12.09,47.59359,-54.27349
2024-03-02 01:24:00+00:00,283.0,8.21,283.0,10.2,12.09,47.59359,-54.27349
2024-03-02 01:34:00+00:00,266.0,6.82,271.0,8.41,12.09,47.59359,-54.27349
2024-03-02 01:44:00+00:00,294.0,7.96,300.0,9.51,12.09,47.59359,-54.27349
2024-03-02 01:54:00+00:00,280.0,7.5,280.0,9.11,12.09,47.59359,-54.27349
2024-03-02 02:04:00+00:00,269.0,7.47,268.0,9.58,12.09,47.59359,-54.27349
2024-03-02 02:14:00+00:00,277.0,7.9,275.0,8.93,12.09,47.59359,-54.27349
2024-03-02 02:24:00+00:00,266.0,7.34,263.0,8.52,12.09,47.59359,-54.27349
2024-03-02 02:34:00+00:00,268.0,7.55,254.0,8.57,12.09,47.59359,-54.27349
2024-03-02 02:44:00+00:00,255.0,6.67,256.0,8.61,12.09,47.59359,-54.27349
2024-03-02 02:54:00+00:00,274.0,7.39,273.0,9.93,12.09,47.59359,-54.27349
2024-03-02 03:04:00+00:00,261.0,7.64,262.0,8.71,12.09,47.59359,-54.27349
2024-03-02 03:14:00+00:00,264.0,7.94,268.0,10.1,12.09,47.59359,-54.27349
2024-03-02 03:24:00+00:00,254.0,7.52,260.0,9.64,12.09,47.59359,-54.27349
2024-03-02 03:34:00+00:00,262.0,7.72,267.0,9.71,12.09,47.59359,-54.27349
2024-03-02 03:44:00+00:00,256.0,7.36,261.0,9.54,12.09,47.59359,-54.27349
2024-03-02 03:54:00+00:00,265.0,7.91,266.0,9.75,12.09,47.59359,-54.27349
2024-03-02 04:04:00+00:00,252.0,7.73,257.0,9.86,12.09,47.59359,-54.27349
2024-03-02 04:14:00+00:00,265.0,4.84,265.0,8.35,12.01,47.59359,-54.27349
2024-03-02 04:24:00+00:00,254.0,6.76,256.0,7.83,12.01,47.59359,-54.27349
2024-03-02 04:34:00+00:00,254.0,6.57,256.0,7.54,12.01,47.59359,-54.27349
2024-03-02 04:44:00+00:00,263.0,6.8,263.0,7.82,12.01,47.59359,-54.27349
2024-03-02 04:54:00+00:00,249.0,8.03,248.0,8.94,12.01,47.59359,-54.27349
2024-03-02 05:04:00+00:00,246.0,7.91,237.0,9.61,12.01,47.59359,-54.27349
2024-03-02 05:14:00+00:00,243.0,7.42,235.0,8.48,12.01,47.59359,-54.27349
2024-03-02 05:24:00+00:00,237.0,8.36,236.0,9.68,12.01,47.59359,-54.27349
2024-03-02 05:34:00+00:00,234.0,7.7,232.0,8.44,12.01,47.59359,-54.27349
2024-03-02 05:44:00+00:00,243.0,7.92,238.0,9.45,12.01,47.59359,-54.27349
2024-03-02 05:54:00+00:00,250.0,7.49,242.0,9.34,12.01,47.59359,-54.27349
2024-03-02 06:04:00+00:00,239.0,8.91,234.0,10.33,12.01,47.59359,-54.27349
2024-03-02 06:14:00+00:00,249.0,8.7,239.0,10.07,12.01,47.59359,-54.27349
2024-03-02 06:24:00+00:00,242.0,9.21,237.0,10.31,12.01,47.59359,-54.27349
2024-03-02 06:34:00+00:00,241.0,9.24,232.0,10.13,12.01,47.59359,-54.27349
2024-03-02 06:44:00+00:00,244.0,9.52,239.0,10.77,12.01,47.59359,-54.27349
2024-03-02 06:54:00+00:00,239.0,9.76,235.0,11.19,12.01,47.59359,-54.27349
2024-03-02 07:04:00+00:00,253.0,9.07,245.0,10.59,12.01,47.59359,-54.27349
2024-03-02 07:14:00+00:00,252.0,8.77,256.0,11.99,11.93,47.59359,-54.27349
2024-03-02 07:24:00+00:00,260.0,6.93,256.0,7.71,11.93,47.59359,-54.27349
2024-03-02 07:34:00+00:00,258.0,7.58,245.0,8.25,11.93,47.59359,-54.27349
2024-03-02 07:44:00+00:00,257.0,7.77,258.0,8.75,11.93,47.59359,-54.27349
2024-03-02 07:54:00+00:00,258.0,6.52,253.0,7.91,11.93,47.59359,-54.27349
2024-03-02 08:04:00+00:00,262.0,6.16,263.0,7.28,11.93,47.59359,-54.27349
2024-03-02 08:14:00+00:00,268.0,6.36,262.0,7.19,11.86,47.59359,-54.27349
2024-03-02 08:24:00+00:00,275.0,5.7,276.0,6.88,11.86,47.59359,-54.27349
2024-03-02 08:34:00+00:00,295.0,6.17,307.0,7.76,11.86,47.59359,-54.27349
2024-03-02 08:44:00+00:00,275.0,7.22,274.0,8.22,11.86,47.59359,-54.27349
2024-03-02 08:54:00+00:00,275.0,7.03,268.0,8.17,11.86,47.59359,-54.27349
2024-03-02 09:04:00+00:00,286.0,7.62,287.0,8.51,11.86,47.59359,-54.27349
2024-03-02 09:14:00+00:00,277.0,8.47,278.0,11.85,11.86,47.59359,-54.27349
2024-03-02 09:24:00+00:00,276.0,8.42,276.0,9.63,11.86,47.59359,-54.27349
2024-03-02 09:34:00+00:00,274.0,8.32,271.0,11.73,11.86,47.59359,-54.27349
2024-03-02 09:44:00+00:00,274.0,9.9,276.0,11.46,11.86,47.59359,-54.27349
2024-03-02 09:54:00+00:00,275.0,10.11,279.0,11.75,11.86,47.59359,-54.27349
2024-03-02 10:04:00+00:00,275.0,9.25,289.0,11.37,11.86,47.59359,-54.27349
2024-03-02 10:14:00+00:00,275.0,9.77,277.0,11.99,11.77,47.59359,-54.27349
2024-03-02 10:24:00+00:00,271.0,10.43,274.0,12.72,11.77,47.59359,-54.27349
2024-03-02 10:34:00+00:00,271.0,8.86,261.0,11.46,11.77,47.59359,-54.27349
2024-03-02 10:44:00+00:00,268.0,8.56,270.0,9.96,11.77,47.59359,-54.27349
2024-03-02 10:54:00+00:00,266.0,8.87,256.0,11.08,11.77,47.59359,-54.27349
2024-03-02 11:04:00+00:00,258.0,8.74,268.0,11.03,11.77,47.59359,-54.27349
2024-03-02 11:14:00+00:00,267.0,8.46,278.0,9.44,13.76,47.59359,-54.27349
2024-03-02 11:24:00+00:00,265.0,7.28,267.0,8.15,13.76,47.59359,-54.27349
2024-03-02 11:34:00+00:00,268.0,7.09,279.0,8.93,13.76,47.59359,-54.27349
2024-03-02 11:44:00+00:00,256.0,8.62,261.0,9.74,13.76,47.59359,-54.27349
2024-03-02 11:54:00+00:00,261.0,7.8,263.0,9.24,13.76,47.59359,-54.27349
2024-03-02 12:04:00+00:00,253.0,7.77,266.0,8.65,13.76,47.59359,-54.27349
2024-03-02 12:14:00+00:00,273.0,6.57,282.0,10.51,13.68,47.59359,-54.27349
2024-03-02 12:24:00+00:00,283.0,9.54,281.0,12.5,13.68,47.59359,-54.27349
2024-03-02 12:34:00+00:00,273.0,10.56,277.0,13.69,13.68,47.59359,-54.27349
2024-03-02 12:44:00+00:00,275.0,10.83,276.0,13.38,13.68,47.59359,-54.27349
2024-03-02 12:54:00+00:00,274.0,11.62,273.0,13.44,13.68,47.59359,-54.27349
2024-03-02 13:04:00+00:00,278.0,11.73,284.0,14.02,13.68,47.59359,-54.27349
2024-03-02 13:14:00+00:00,271.0,11.82,269.0,13.78,13.6,47.59359,-54.27349
2024-03-02 13:24:00+00:00,267.0,9.83,263.0,12.93,13.6,47.59359,-54.27349
2024-03-02 13:34:00+00:00,281.0,12.46,285.0,14.53,13.6,47.59359,-54.27349
2024-03-02 13:44:00+00:00,293.0,9.75,295.0,12.3,13.6,47.59359,-54.27349
2024-03-02 13:54:00+00:00,274.0,7.8,275.0,9.85,13.6,47.59359,-54.27349
2024-03-02 14:04:00+00:00,294.0,7.82,290.0,11.02,13.6,47.59359,-54.27349
2024-03-02 14:14:00+00:00,290.0,11.56,289.0,15.14,14.48,47.59359,-54.27349
2024-03-02 14:24:00+00:00,259.0,8.77,268.0,11.81,14.48,47.59359,-54.27349
2024-03-02 14:34:00+00:00,281.0,10.68,283.0,13.73,14.48,47.59359,-54.27349
2024-03-02 14:44:00+00:00,269.0,9.3,271.0,12.4,14.48,47.59359,-54.27349
2024-03-02 14:54:00+00:00,260.0,12.33,254.0,14.94,14.48,47.59359,-54.27349
2024-03-02 15:04:00+00:00,275.0,12.71,279.0,14.38,14.48,47.59359,-54.27349
2024-03-02 15:14:00+00:00,266.0,11.6,267.0,14.39,13.84,47.59359,-54.27349
2024-03-02 15:24:00+00:00,282.0,13.37,285.0,14.76,13.84,47.59359,-54.27349
2024-03-02 15:34:00+00:00,274.0,11.79,272.0,14.55,13.84,47.59359,-54.27349
2024-03-02 15:44:00+00:00,259.0,11.74,262.0,15.03,13.84,47.59359,-54.27349
2024-03-02 15:54:00+00:00,263.0,12.01,261.0,14.42,13.84,47.59359,-54.27349
2024-03-02 16:04:00+00:00,267.0,12.7,265.0,14.44,13.84,47.59359,-54.27349
2024-03-02 16:14:00+00:00,271.0,12.06,270.0,14.45,14.08,47.59359,-54.27349
2024-03-02 16:24:00+00:00,276.0,13.22,274.0,14.62,14.08,47.59359,-54.27349
2024-03-02 16:34:00+00:00,273.0,12.83,275.0,14.36,14.08,47.59359,-54.27349
2024-03-02 16:44:00+00:00,276.0,13.17,279.0,14.72,14.08,47.59359,-54.27349
2024-03-02 16:54:00+00:00,276.0,12.9,285.0,14.91,14.08,47.59359,-54.27349
2024-03-02 17:04:00+00:00,264.0,12.25,261.0,14.34,14.08,47.59359,-54.27349
2024-03-02 17:14:01+00:00,270.0,11.76,270.0,14.53,13.6,47.59359,-54.27349
2024-03-02 17:24:01+00:00,272.0,12.23,269.0,14.4,13.6,47.59359,-54.27349
2024-03-02 17:34:01+00:00,280.0,12.94,284.0,15.18,13.6,47.59359,-54.27349
2024-03-02 17:44:01+00:00,268.0,12.73,271.0,14.36,13.6,47.59359,-54.27349
2024-03-02 17:54:01+00:00,275.0,13.18,282.0,14.68,13.6,47.59359,-54.27349
2024-03-02 18:04:01+00:00,272.0,12.94,279.0,14.73,13.6,47.59359,-54.27349
2024-03-02 18:14:00+00:00,272.0,13.43,275.0,14.77,14.4,47.59359,-54.27349
2024-03-02 18:24:00+00:00,274.0,12.77,274.0,14.76,14.4,47.59359,-54.27349
2024-03-02 18:34:00+00:00,275.0,11.82,280.0,14.9,14.4,47.59359,-54.27349
2024-03-02 18:44:00+00:00,272.0,13.36,271.0,14.65,14.4,47.59359,-54.27349
2024-03-02 18:54:00+00:00,274.0,12.04,272.0,13.63,14.4,47.59359,-54.27349
2024-03-02 19:04:00+00:00,260.0,11.8,264.0,14.9,14.4,47.59359,-54.27349
2024-03-02 19:14:00+00:00,266.0,11.51,268.0,14.91,14.32,47.59359,-54.27349
2024-03-02 19:24:00+00:00,265.0,11.87,268.0,13.4,14.32,47.59359,-54.27349
2024-03-02 19:34:00+00:00,267.0,12.82,268.0,14.5,14.32,47.59359,-54.27349
2024-03-02 19:44:00+00:00,272.0,12.44,273.0,14.09,14.32,47.59359,-54.27349
2024-03-02 19:54:00+00:00,276.0,12.01,278.0,13.49,14.32,47.59359,-54.27349
2024-03-02 20:04:00+00:00,261.0,10.71,257.0,12.18,14.32,47.59359,-54.27349
2024-03-02 20:14:00+00:00,266.0,10.81,266.0,13.08,13.44,47.59359,-54.27349
2024-03-02 20:24:00+00:00,271.0,11.47,276.0,13.34,13.44,47.59359,-54.27349
2024-03-02 20:34:00+00:00,272.0,10.98,274.0,12.25,13.44,47.59359,-54.27349
2024-03-02 20:44:00+00:00,262.0,8.27,266.0,10.11,13.44,47.59359,-54.27349
2024-03-02 20:54:00+00:00,260.0,8.92,263.0,10.74,13.44,47.59359,-54.27349
2024-03-02 21:04:00+00:00,260.0,8.14,275.0,9.65,13.44,47.59359,-54.27349
2024-03-02 21:14:00+00:00,256.0,7.93,257.0,10.0,13.21,47.59359,-54.27349
2024-03-02 21:24:00+00:00,242.0,8.97,249.0,10.21,13.21,47.59359,-54.27349
2024-03-02 21:34:00+00:00,244.0,7.75,243.0,9.18,13.21,47.59359,-54.27349
2024-03-02 21:44:00+00:00,248.0,7.83,251.0,9.32,13.21,47.59359,-54.27349
2024-03-02 21:54:00+00:00,247.0,7.22,247.0,8.28,13.21,47.59359,-54.27349
2024-03-02 22:04:00+00:00,233.0,6.86,233.0,7.77,13.21,47.59359,-54.27349
2024-03-02 22:14:00+00:00,258.0,7.37,262.0,8.04,12.49,47.59359,-54.27349
2024-03-02 22:24:00+00:00,258.0,8.36,260.0,9.76,12.49,47.59359,-54.27349
2024-03-02 22:34:00+00:00,249.0,8.26,247.0,9.23,12.49,47.59359,-54.27349
2024-03-02 22:44:00+00:00,258.0,9.5,259.0,10.42,12.49,47.59359,-54.27349
2024-03-02 22:54:00+00:00,257.0,10.24,257.0,11.32,12.49,47.59359,-54.27349
2024-03-02 23:04:00+00:00,254.0,10.34,254.0,11.17,12.49,47.59359,-54.27349
2024-03-02 23:14:00+00:00,259.0,9.35,260.0,10.59,12.25,47.59359,-54.27349
2024-03-02 23:24:00+00:00,244.0,9.35,252.0,10.44,12.25,47.59359,-54.27349
2024-03-02 23:34:00+00:00,246.0,9.41,242.0,10.79,12.25,47.59359,-54.27349
2024-03-02 23:44:00+00:00,252.0,10.23,248.0,11.42,12.25,47.59359,-54.27349
2024-03-02 23:54:00+00:00,245.0,10.75,237.0,12.54,12.25,47.59359,-54.27349
